Location: Tamazert
(32.6352°N, 5.2072°W)
Time: 02:05:06
(UTC+00:00)

Tiangong - Visible Passes

Search period start: 05 March 2024 00:00
Search period end: 15 March 2024 00:00
Orbit: 374 x 383 km, 41.5° (Epoch: 04 March)

Date Brightness Start Highest point End Pass type
(mag) Time Alt. Az. Time Alt. Az. Time Alt. Az.
05 Mar 0.4 20:06:35 10° NW 20:07:47 16° NNW 20:07:47 16° NNW visible
06 Mar 0.0 19:05:01 10° NW 19:07:06 16° N 19:09:11 10° NE visible
07 Mar -0.7 19:39:52 10° NW 19:42:30 25° NNE 19:42:37 25° NNE visible
08 Mar 0.0 20:14:32 10° WNW 20:16:02 25° NW 20:16:02 25° NW visible
09 Mar -1.3 19:12:50 10° NW 19:15:44 35° NNE 19:17:22 20° ENE visible
10 Mar -2.1 19:47:29 10° WNW 19:50:34 67° SSW 19:50:48 64° S visible
11 Mar 0.6 20:22:59 10° W 20:24:16 15° WSW 20:24:16 15° WSW visible
12 Mar -0.8 19:20:19 10° WNW 19:23:10 34° SW 19:25:42 12° SSE visible
14 Mar 0.4 18:53:09 10° W 18:55:25 19° SW 18:57:42 10° S visible
